Tracking 19219 objects as of 21-Jul-2018
HD Live streaming from Space Station
objects crossing your sky now

FENGYUN 1C DEB

Track FENGYUN 1C DEB now!
10-day predictions


NORAD ID: 30320
Int'l Code: 1999-025AAH
Perigee: 846.8 km
Apogee: 975.2 km
Inclination: 99.3 °
Period: 103.1 minutes
Semi major axis: 7282 km
RCS: 0.0266 m2 (small)
Launch date: May 10, 1999
Source: People's Republic of China (PRC)
Launch site: Taiyaun Space Center, China (TSC)

Note: This is SATELLITE DEBRIS
aabbcc
Your satellite tracking list
Your tracking list is empty




NASA's NSSDC Master Catalog

Two Line Element Set (TLE):
1 30320U 99025AAH 18201.48348326  .00000203  00000-0  17232-3 0  9996
2 30320  99.3419 181.9242 0088203  94.8819  29.1701 13.97093595586710
Source of the keplerian elements: AFSPC